Alexandria, LA

9:59 PM CDT on August 20, 2017 (GMT -0500)
Alexandria International

Weather History for KAEX - December, 2013

Change the Weather History Date:

Thursday, December 5, 2013

  Actual Average Record
Temperature  
Mean Temperature 64 °F 52 °F  
Max Temperature 82 °F 62 °F 82 °F (1906)
Min Temperature 45 °F 41 °F 20 °F (1893)
Degree Days  
Heating Degree Days 1 14  
Month to date heating degree days 9 67  
Since 1 July heating degree days 385 392  
Growing Degree Days 14 (Base 50)    
Moisture  
Dew Point 63 °F    
Average Humidity 85    
Maximum Humidity 100    
Minimum Humidity 69    
Precipitation  
Precipitation 0.06 in 0.25 in 3.00 in (1930)
Month to date precipitation 0.06 1.30  
Year to date precipitation 52.55 51.10  
Snow  
Snow 0.00 in - 0.00 in ()
Month to date snowfall 0.0  
Since 1 July snowfall 0.0  
Snow Depth 0.00 in    
Sea Level Pressure  
Sea Level Pressure 29.91 in    
Wind  
Wind Speed 9 mph (SSW)    
Max Wind Speed 18 mph    
Max Gust Speed 23 mph    
Visibility 7 miles    
Events Rain    
T = Trace of Precipitation, MM = Missing Value Source: NWS Daily Summary

Daily Weather History Graph

Daily Weather History Graph

Search for Another Location

Airport or City:

Trip Planner

Search our weather history database for the weather conditions in past years. The results will help you decide how hot, cold, wet, or windy it might be!

Date:

Astronomy

Dec. 05, 2013 Rise Set
Actual Time 6:54 AM CST 5:07 PM CST
Civil Twilight 6:28 AM CST 5:33 PM CST
Nautical Twilight 5:58 AM CST 6:03 PM CST
Astronomical Twilight 5:28 AM CST 6:33 PM CST
Moon 9:20 AM CST (12/5) 8:22 PM CST (12/5)
Length of Visible Light 11h 05m
Length of Day
10h 12m
Waxing Crescent, 11% of the Moon is Illuminated
Dec 5
Waxing Crescent
Dec 9
First Quarter
Dec 17
Full
Dec 25
Last Quarter
Jan 1
New

Hourly Weather History & Observations

Time (CST) Temp. Windchill Dew Point Humidity Pressure Visibility Wind Dir Wind Speed Gust Speed Precip Events Conditions
12:53 AM 73.0 °F - 69.1 °F 87% 29.86 in 10.0 mi South 6.9 mph - N/A   Overcast
1:53 AM 72.0 °F - 69.1 °F 91% 29.85 in 10.0 mi SSE 4.6 mph - N/A   Mostly Cloudy
2:46 AM 71.6 °F - 69.8 °F 94% 29.85 in 9.0 mi South 5.8 mph - N/A   Overcast
2:53 AM 72.0 °F - 70.0 °F 93% 29.86 in 9.0 mi SSE 5.8 mph - N/A   Overcast
3:31 AM 73.4 °F - 69.8 °F 88% 29.85 in 9.0 mi SSE 5.8 mph - N/A   Mostly Cloudy
3:41 AM 73.4 °F - 69.8 °F 88% 29.85 in 9.0 mi SSE 6.9 mph - N/A   Overcast
3:53 AM 73.0 °F - 70.0 °F 90% 29.86 in 9.0 mi SSE 5.8 mph - N/A   Overcast
4:05 AM 73.4 °F - 69.8 °F 88% 29.85 in 9.0 mi SSE 4.6 mph - N/A   Mostly Cloudy
4:53 AM 72.0 °F - 70.0 °F 93% 29.87 in 7.0 mi Calm Calm - N/A   Overcast
5:33 AM 71.6 °F - 69.8 °F 94% 29.87 in 6.0 mi Calm Calm - N/A   Overcast
5:53 AM 72.0 °F - 70.0 °F 93% 29.89 in 7.0 mi South 4.6 mph - N/A   Overcast
6:53 AM 73.0 °F - 70.0 °F 90% 29.90 in 9.0 mi South 4.6 mph - N/A   Mostly Cloudy
7:28 AM 73.4 °F - 69.8 °F 88% 29.90 in 7.0 mi SSE 5.8 mph - 0.00 in Rain Light Rain
7:53 AM 73.0 °F - 71.1 °F 93% 29.92 in 8.0 mi South 8.1 mph - 0.00 in   Overcast
8:53 AM 75.0 °F - 71.1 °F 87% 29.94 in 10.0 mi South 9.2 mph - N/A   Overcast
9:31 AM 75.2 °F - 69.8 °F 83% 29.94 in 10.0 mi South 9.2 mph - N/A   Overcast
9:53 AM 75.9 °F - 70.0 °F 82% 29.95 in 10.0 mi South 15.0 mph - N/A   Overcast
10:53 AM 75.9 °F - 70.0 °F 82% 29.95 in 10.0 mi SSW 9.2 mph - N/A   Overcast
11:53 AM 79.0 °F - 70.0 °F 74% 29.91 in 10.0 mi South 9.2 mph - N/A   Mostly Cloudy
12:53 PM 81.0 °F - 70.0 °F 69% 29.88 in 10.0 mi SSW 11.5 mph - N/A   Mostly Cloudy
1:14 PM 80.6 °F - 69.8 °F 70% 29.86 in 10.0 mi South 12.7 mph 20.7 mph N/A   Mostly Cloudy
1:53 PM 80.1 °F - 69.1 °F 69% 29.86 in 10.0 mi South 6.9 mph 16.1 mph N/A   Mostly Cloudy
2:53 PM 64.9 °F - 61.0 °F 87% 29.87 in 6.0 mi NW 17.3 mph 23.0 mph 0.01 in   Overcast
3:32 PM 62.6 °F - 59.0 °F 88% 29.87 in 5.0 mi NW 16.1 mph - 0.00 in Rain Light Rain
3:50 PM 60.8 °F - 57.2 °F 88% 29.89 in 5.0 mi NW 10.4 mph - 0.00 in   Overcast
3:53 PM 61.0 °F - 57.9 °F 90% 29.90 in 5.0 mi NW 11.5 mph - 0.00 in   Overcast
4:04 PM 60.8 °F - 57.2 °F 88% 29.90 in 5.0 mi WNW 11.5 mph - N/A   Overcast
4:07 PM 60.8 °F - 57.2 °F 88% 29.90 in 5.0 mi NW 11.5 mph - N/A   Overcast
4:21 PM 60.8 °F - 57.2 °F 88% 29.90 in 5.0 mi WNW 10.4 mph - N/A   Overcast
4:53 PM 60.1 °F - 57.9 °F 93% 29.92 in 4.0 mi NW 10.4 mph - N/A   Overcast
5:39 PM 57.2 °F - 57.2 °F 100% 29.93 in 4.0 mi NNW 11.5 mph - N/A   Overcast
5:53 PM 57.0 °F - 57.0 °F 100% 29.94 in 4.0 mi NNW 10.4 mph - N/A   Overcast
6:53 PM 55.0 °F - 54.0 °F 96% 29.96 in 6.0 mi NNW 12.7 mph - 0.00 in   Overcast
7:53 PM 53.1 °F - 52.0 °F 96% 29.99 in 5.0 mi North 9.2 mph - 0.00 in   Overcast
8:53 PM 50.0 °F - 48.9 °F 96% 30.00 in 6.0 mi North 9.2 mph - 0.01 in   Overcast
9:53 PM 48.0 °F - 46.9 °F 96% 30.02 in 4.0 mi North 11.5 mph - 0.04 in Rain Rain
10:53 PM 46.9 °F - 45.0 °F 93% 30.02 in 10.0 mi North 9.2 mph - 0.00 in   Overcast
11:53 PM 45.0 °F 41.2 °F 44.1 °F 97% 30.02 in 4.0 mi NNE 6.9 mph - N/A   Overcast